• In Latvia
  • List of Countries
  • For 7 days
  • Water Temperature
  • Satellite Maps
  • Weather Map
  • Weather Widgets
  • user-avatar
    Login

    Hourly Weather Newcastle

    Today, 21 July, Friday

    Time Temperature Precipitation Wind Pressure Humidity
    00:00 +7°C° 0 mm 6 mps 762 mmHg 65%
    01:00 +5°C° 0 mm 6 mps 762 mmHg 68%
    02:00 +5°C° 0 mm 6 mps 762 mmHg 71%
    03:00 +4°C° 0 mm 6 mps 762 mmHg 74%
    04:00 +4°C° 0 mm 6 mps 763 mmHg 77%
    05:00 +3°C° 0 mm 6 mps 763 mmHg 77%
    06:00 +3°C° 0 mm 6 mps 763 mmHg 78%
    07:00 +3°C° 0 mm 6 mps 764 mmHg 79%
    08:00 +5°C° 0 mm 6 mps 764 mmHg 71%
    09:00 +8°C° 0 mm 6 mps 764 mmHg 63%
    10:00 +11°C° 0 mm 6 mps 764 mmHg 56%
    11:00 +14°C° 0.1 mm 6 mps 764 mmHg 54%
    12:00 +15°C° 0.1 mm 6 mps 764 mmHg 53%
    13:00 +16°C° 0.1 mm 6 mps 764 mmHg 51%
    14:00 +16°C° 0.1 mm 5 mps 764 mmHg 53%
    15:00 +16°C° 0.1 mm 5 mps 764 mmHg 56%
    16:00 +15°C° 0 mm 5 mps 764 mmHg 60%
    17:00 +13°C° 0 mm 5 mps 764 mmHg 66%
    18:00 +10°C° 0 mm 5 mps 765 mmHg 72%
    19:00 +10°C° 0 mm 4 mps 766 mmHg 78%
    20:00 +8°C° 0 mm 4 mps 766 mmHg 80%
    21:00 +8°C° 0 mm 4 mps 766 mmHg 82%
    22:00 +7°C° 0 mm 4 mps 766 mmHg 83%
    23:00 +7°C° 0 mm 4 mps 766 mmHg 84%

    Tomorrow, 22 July, Saturday

    Time Temperature Precipitation Wind Pressure Humidity
    00:00 +6°C° 0 mm 4 mps 767 mmHg 86%
    01:00 +6°C° 0 mm 4 mps 767 mmHg 87%
    02:00 +5°C° 0 mm 4 mps 767 mmHg 87%
    03:00 +5°C° 0 mm 3 mps 767 mmHg 87%
    04:00 +5°C° 0 mm 3 mps 767 mmHg 86%
    05:00 +5°C° 0 mm 3 mps 767 mmHg 86%
    06:00 +4°C° 0 mm 3 mps 767 mmHg 86%
    07:00 +4°C° 0 mm 3 mps 767 mmHg 87%
    08:00 +8°C° 0 mm 3 mps 767 mmHg 76%
    09:00 +11°C° 0 mm 3 mps 767 mmHg 65%
    10:00 +13°C° 0 mm 3 mps 767 mmHg 55%
    11:00 +16°C° 0 mm 3 mps 766 mmHg 49%
    12:00 +17°C° 0 mm 3 mps 765 mmHg 43%
    13:00 +19°C° 0 mm 2 mps 765 mmHg 37%
    14:00 +18°C° 0 mm 2 mps 764 mmHg 40%
    15:00 +18°C° 0 mm 2 mps 764 mmHg 43%
    16:00 +18°C° 0 mm 3 mps 764 mmHg 46%
    17:00 +16°C° 0 mm 3 mps 764 mmHg 51%
    18:00 +13°C° 0 mm 3 mps 764 mmHg 55%
    19:00 +11°C° 0 mm 4 mps 764 mmHg 59%
    20:00 +10°C° 0 mm 4 mps 765 mmHg 62%
    21:00 +8°C° 0 mm 4 mps 765 mmHg 64%
    22:00 +8°C° 0 mm 4 mps 765 mmHg 67%
    23:00 +7°C° 0 mm 4 mps 765 mmHg 66%

    Day after tomorrow, 23 July, Sunday

    Time Temperature Precipitation Wind Pressure Humidity
    00:00 +7°C° 0 mm 4 mps 764 mmHg 66%
    01:00 +7°C° 0 mm 4 mps 764 mmHg 65%
    02:00 +7°C° 0 mm 5 mps 764 mmHg 64%
    03:00 +7°C° 0 mm 5 mps 764 mmHg 63%
    04:00 +7°C° 0 mm 5 mps 763 mmHg 61%
    05:00 +7°C° 0 mm 5 mps 764 mmHg 60%
    06:00 +7°C° 0 mm 5 mps 764 mmHg 58%
    07:00 +7°C° 0 mm 6 mps 764 mmHg 57%
    08:00 +9°C° 0 mm 6 mps 764 mmHg 51%
    09:00 +11°C° 0 mm 6 mps 764 mmHg 45%
    10:00 +14°C° 0 mm 6 mps 764 mmHg 40%
    11:00 +16°C° 0 mm 6 mps 763 mmHg 37%
    12:00 +19°C° 0 mm 6 mps 762 mmHg 35%
    13:00 +20°C° 0 mm 6 mps 762 mmHg 32%
    14:00 +20°C° 0 mm 5 mps 761 mmHg 34%
    15:00 +20°C° 0 mm 5 mps 761 mmHg 37%
    16:00 +19°C° 0 mm 5 mps 761 mmHg 39%
    17:00 +17°C° 0 mm 5 mps 761 mmHg 42%
    18:00 +15°C° 0 mm 5 mps 762 mmHg 45%
    19:00 +13°C° 0 mm 6 mps 762 mmHg 48%
    20:00 +13°C° 0 mm 6 mps 762 mmHg 48%
    21:00 +13°C° 0 mm 6 mps 763 mmHg 48%
    22:00 +11°C° 0 mm 6 mps 763 mmHg 47%
    23:00 +11°C° 0 mm 6 mps 763 mmHg 48%

    24 July, Monday

    Time Temperature Precipitation Wind Pressure Humidity
    00:00 +11°C° 0 mm 6 mps 763 mmHg 48%
    01:00 +10°C° 0 mm 6 mps 763 mmHg 48%
    02:00 +10°C° 0 mm 6 mps 763 mmHg 49%
    03:00 +10°C° 0 mm 6 mps 763 mmHg 50%
    04:00 +10°C° 0 mm 5 mps 763 mmHg 51%
    05:00 +9°C° 0 mm 5 mps 763 mmHg 53%
    06:00 +9°C° 0 mm 5 mps 764 mmHg 54%
    07:00 +9°C° 0 mm 5 mps 764 mmHg 56%
    08:00 +12°C° 0 mm 5 mps 764 mmHg 54%
    09:00 +14°C° 0 mm 5 mps 765 mmHg 52%
    10:00 +16°C° 0 mm 5 mps 765 mmHg 50%
    11:00 +17°C° 0 mm 5 mps 765 mmHg 47%
    12:00 +19°C° 0 mm 4 mps 764 mmHg 44%
    13:00 +21°C° 0 mm 4 mps 764 mmHg 41%
    14:00 +20°C° 0 mm 3 mps 764 mmHg 43%
    15:00 +20°C° 0 mm 3 mps 764 mmHg 44%
    16:00 +20°C° 0 mm 2 mps 763 mmHg 46%
    17:00 +18°C° 0 mm 2 mps 764 mmHg 50%
    18:00 +16°C° 0 mm 2 mps 765 mmHg 54%
    19:00 +14°C° 0 mm 2 mps 765 mmHg 58%
    20:00 +13°C° 0 mm 2 mps 766 mmHg 60%
    21:00 +12°C° 0 mm 2 mps 766 mmHg 62%
    22:00 +12°C° 0 mm 2 mps 766 mmHg 63%
    23:00 +10°C° 0 mm 3 mps 766 mmHg 66%

    25 July, Tuesday

    Time Temperature Precipitation Wind Pressure Humidity
    00:00 +9°C° 0 mm 3 mps 766 mmHg 69%
    01:00 +9°C° 0 mm 3 mps 766 mmHg 73%
    02:00 +9°C° 0 mm 3 mps 766 mmHg 74%
    03:00 +8°C° 0 mm 3 mps 766 mmHg 75%
    04:00 +8°C° 0 mm 3 mps 766 mmHg 77%
    05:00 +8°C° 0 mm 3 mps 766 mmHg 77%
    06:00 +8°C° 0 mm 3 mps 767 mmHg 77%
    07:00 +8°C° 0 mm 3 mps 767 mmHg 77%
    08:00 +10°C° 0 mm 4 mps 767 mmHg 69%
    09:00 +13°C° 0 mm 4 mps 767 mmHg 61%
    10:00 +15°C° 0 mm 4 mps 767 mmHg 53%
    11:00 +18°C° 0 mm 3 mps 766 mmHg 49%
    12:00 +19°C° 0 mm 3 mps 765 mmHg 44%
    13:00 +20°C° 0 mm 3 mps 765 mmHg 40%
    14:00 +20°C° 0 mm 3 mps 764 mmHg 42%
    15:00 +20°C° 0 mm 3 mps 764 mmHg 45%
    16:00 +20°C° 0 mm 2 mps 763 mmHg 47%
    17:00 +18°C° 0 mm 3 mps 764 mmHg 52%
    18:00 +16°C° 0 mm 3 mps 764 mmHg 56%
    19:00 +13°C° 0 mm 3 mps 764 mmHg 61%
    20:00 +13°C° 0 mm 4 mps 764 mmHg 62%
    21:00 +13°C° 0 mm 4 mps 764 mmHg 62%
    22:00 +12°C° 0 mm 4 mps 764 mmHg 63%
    23:00 +13°C° 0 mm 5 mps 764 mmHg 62%

    26 July, Wednesday

    Time Temperature Precipitation Wind Pressure Humidity
    00:00 +13°C° 0 mm 5 mps 763 mmHg 61%
    01:00 +13°C° 0 mm 6 mps 763 mmHg 60%
    02:00 +13°C° 0 mm 6 mps 763 mmHg 59%
    03:00 +13°C° 0 mm 6 mps 762 mmHg 57%
    04:00 +14°C° 0 mm 6 mps 762 mmHg 56%
    05:00 +14°C° 0 mm 6 mps 762 mmHg 56%
    06:00 +13°C° 0 mm 6 mps 762 mmHg 55%
    07:00 +13°C° 0 mm 6 mps 763 mmHg 55%
    08:00 +15°C° 0 mm 6 mps 763 mmHg 51%
    09:00 +17°C° 0 mm 6 mps 763 mmHg 47%
    10:00 +20°C° 0 mm 6 mps 762 mmHg 43%
    11:00 +21°C° 0 mm 6 mps 762 mmHg 40%
    12:00 +22°C° 0 mm 6 mps 761 mmHg 37%
    13:00 +23°C° 0 mm 6 mps 761 mmHg 34%
    14:00 +22°C° 0 mm 6 mps 761 mmHg 42%
    15:00 +20°C° 0 mm 6 mps 761 mmHg 50%
    16:00 +17°C° 0 mm 6 mps 761 mmHg 57%
    17:00 +16°C° 0 mm 6 mps 761 mmHg 60%
    18:00 +15°C° 0 mm 6 mps 762 mmHg 64%
    19:00 +14°C° 0 mm 6 mps 762 mmHg 67%
    20:00 +13°C° 0 mm 6 mps 762 mmHg 68%
    21:00 +13°C° 0 mm 6 mps 763 mmHg 69%
    22:00 +11°C° 0 mm 6 mps 763 mmHg 70%
    23:00 +11°C° 0 mm 6 mps 763 mmHg 70%
    Show more